QPF
0.00 0.00 0.00 0.00 0.00 0.00 0.00 0.00 0.00 0.00 0.00 0.00 0.00 0.00 0.00 0.00 0.00 0.00 0.00 0.00 0.00 0.00 0.00 0.00 0.00 0.00 0.00 0.00 0.00 0.00 0.00 0.00 0.00 0.00 0.00 0.00 0.00 0.02 0.08 0.16 0.10 0.07 0.08 0.08
0.00 0.00 0.00 0.00 0.00 0.00 0.00 0.00 0.00 0.00 0.00 0.00 0.00 0.00 0.00 0.00 0.00 0.00 0.00 0.00 0.00 0.00 0.00 0.00 0.00 0.00 0.00 0.00 0.00 0.00 0.00 0.00 0.00 0.00 0.00 0.01 0.01 0.04 0.08 0.12 0.10 0.05 0.06 0.08
0.00 0.00 0.00 0.00 0.00 0.00 0.00 0.00 0.00 0.00 0.00 0.00 0.00 0.00 0.00 0.00 0.00 0.00 0.00 0.00 0.00 0.00 0.00 0.00 0.00 0.00 0.00 0.00 0.01 0.02 0.05 0.03 0.02 0.01 0.00 0.02 0.06 0.16 0.11 0.23 0.11 0.04 0.06 0.09
0.00 0.00 0.00 0.00 0.00 0.00 0.00 0.00 0.00 0.00 0.00 0.00 0.00 0.00 0.00 0.00 0.00 0.00 0.00 0.00 0.00 0.00 0.00 0.01 0.01 0.02 0.03 0.04 0.03 0.03 0.05 0.07 0.03 0.01 0.00 0.00 0.13 0.41 0.25 0.28 0.19 0.06 0.07 0.11
0.00 0.00 0.00 0.00 0.00 0.00 0.00 0.00 0.00 0.00 0.00 0.00 0.00 0.00 0.00 0.00 0.00 0.00 0.00 0.00 0.00 0.00 0.00 0.01 0.02 0.04 0.03 0.03 0.01 0.01 0.02 0.05 0.07 0.05 0.05 0.02 0.24 0.41 0.30 0.26 0.13 0.07 0.10 0.15
0.00 0.00 0.00 0.00 0.00 0.00 0.00 0.00 0.00 0.00 0.00 0.00 0.00 0.00 0.00 0.00 0.00 0.00 0.00 0.00 0.00 0.00 0.00 0.00 0.00 0.02 0.01 0.01 0.00 0.00 0.00 0.02 0.09 0.16 0.20 0.21 0.25 0.49 0.26 0.18 0.15 0.06 0.07 0.11
0.00 0.00 0.00 0.00 0.00 0.00 0.00 0.00 0.00 0.00 0.00 0.00 0.00 0.00 0.00 0.00 0.00 0.00 0.00 0.00 0.00 0.00 0.00 0.01 0.01 0.01 0.00 0.00 0.01 0.01 0.02 0.05 0.09 0.06 0.06 0.11 0.15 0.21 0.43 0.12 0.07 0.05 0.03 0.05
0.00 0.00 0.00 0.00 0.00 0.00 0.00 0.00 0.00 0.00 0.00 0.00 0.00 0.00 0.00 0.00 0.00 0.00 0.00 0.00 0.00 0.00 0.00 0.00 0.01 0.00 0.00 0.00 0.00 0.00 0.00 0.01 0.01 0.01 0.00 0.02 0.05 0.11 0.16 0.10 0.04 0.02 0.03 0.05
0.00 0.00 0.00 0.00 0.00 0.00 0.00 0.00 0.00 0.00 0.00 0.00 0.00 0.00 0.00 0.00 0.00 0.00 0.00 0.00 0.00 0.00 0.00 0.00 0.00 0.00 0.00 0.00 0.00 0.00 0.00 0.00 0.00 0.00 0.00 0.00 0.01 0.02 0.02 0.06 0.06 0.03 0.03 0.11
0.00 0.00 0.00 0.00 0.00 0.00 0.00 0.00 0.00 0.00 0.00 0.00 0.00 0.00 0.00 0.00 0.00 0.00 0.00 0.00 0.00 0.00 0.00 0.00 0.00 0.00 0.00 0.00 0.00 0.00 0.00 0.00 0.00 0.00 0.00 0.00 0.00 0.00 0.00 0.00 0.01 0.03 0.04 0.08
0.00 0.00 0.00 0.00 0.00 0.00 0.00 0.00 0.00 0.00 0.00 0.00 0.00 0.00 0.00 0.00 0.00 0.00 0.00 0.00 0.00 0.00 0.00 0.00 0.00 0.00 0.00 0.00 0.00 0.00 0.00 0.00 0.00 0.00 0.00 0.00 0.00 0.00 0.00 0.00 0.00 0.00 0.01 0.04
0.00 0.00 0.00 0.00 0.00 0.00 0.00 0.00 0.00 0.00 0.00 0.00 0.00 0.00 0.00 0.00 0.00 0.00 0.00 0.00 0.00 0.00 0.00 0.00 0.00 0.00 0.00 0.00 0.00 0.00 0.00 0.00 0.00 0.00 0.00 0.00 0.00 0.00 0.00 0.00 0.00 0.00 0.02 0.01
0.00 0.00 0.00 0.00 0.00 0.00 0.00 0.00 0.00 0.00 0.00 0.00 0.00 0.00 0.00 0.00 0.00 0.00 0.00 0.00 0.00 0.00 0.00 0.00 0.00 0.00 0.00 0.00 0.00 0.00 0.00 0.00 0.00 0.00 0.00 0.01 0.00 0.00 0.00 0.00 0.00 0.00 0.00 0.00
0.00 0.00 0.00 0.00 0.00 0.00 0.00 0.00 0.00 0.00 0.00 0.00 0.00 0.00 0.00 0.00 0.00 0.00 0.00 0.00 0.00 0.00 0.00 0.00 0.00 0.00 0.00 0.00 0.00 0.00 0.00 0.00 0.00 0.00 0.00 0.00 0.00 0.00 0.00 0.00 0.00 0.00 0.00 0.00
0.00 0.00 0.00 0.00 0.00 0.00 0.00 0.00 0.00 0.00 0.00 0.00 0.00 0.00 0.00 0.00 0.00 0.00 0.00 0.00 0.00 0.00 0.00 0.00 0.00 0.00 0.00 0.00 0.00 0.00 0.00 0.00 0.00 0.00 0.00 0.00 0.00 0.00 0.00 0.00 0.00 0.00 0.00 0.00
0.00 0.00 0.00 0.00 0.00 0.00 0.00 0.00 0.00 0.00 0.00 0.00 0.00 0.00 0.00 0.00 0.00 0.00 0.00 0.00 0.00 0.00 0.00 0.00 0.00 0.00 0.00 0.00 0.00 0.00 0.00 0.00 0.00 0.00 0.00 0.00 0.00 0.00 0.00 0.00 0.00 0.00 0.00 0.00
0.00 0.00 0.00 0.00 0.00 0.00 0.00 0.00 0.00 0.00 0.00 0.00 0.00 0.00 0.00 0.00 0.00 0.00 0.00 0.00 0.00 0.00 0.00 0.00 0.00 0.00 0.00 0.00 0.00 0.00 0.00 0.00 0.00 0.00 0.00 0.00 0.00 0.00 0.00 0.00 0.00 0.00 0.00 0.00
0.00 0.00 0.00 0.00 0.00 0.00 0.00 0.00 0.00 0.00 0.00 0.00 0.00 0.00 0.00 0.00 0.00 0.00 0.00 0.00 0.00 0.00 0.00 0.00 0.00 0.00 0.00 0.00 0.00 0.00 0.00 0.00 0.00 0.00 0.00 0.00 0.00 0.00 0.00 0.00 0.00 0.00 0.00 0.00
0.00 0.00 0.00 0.00 0.00 0.00 0.00 0.00 0.00 0.00 0.00 0.00 0.00 0.00 0.00 0.00 0.00 0.00 0.00 0.00 0.00 0.00 0.00 0.00 0.00 0.00 0.00 0.00 0.00 0.00 0.00 0.00 0.00 0.00 0.00 0.00 0.00 0.00 0.00 0.00 0.00 0.00 0.00 0.00
0.00 0.00 0.00 0.00 0.00 0.00 0.00 0.00 0.00 0.00 0.00 0.00 0.00 0.00 0.00 0.00 0.00 0.00 0.00 0.00 0.00 0.00 0.00 0.00 0.00 0.00 0.00 0.00 0.00 0.00 0.00 0.00 0.00 0.00 0.00 0.00 0.00 0.00 0.00 0.00 0.00 0.00 0.00 0.00
0.00 0.00 0.00 0.00 0.00 0.00 0.00 0.00 0.00 0.00 0.00 0.00 0.00 0.00 0.00 0.00 0.00 0.00 0.00 0.00 0.00 0.00 0.00 0.00 0.00 0.00 0.00 0.00 0.00 0.00 0.00 0.00 0.00 0.00 0.00 0.00 0.00 0.00 0.00 0.00 0.00 0.00 0.00 0.00
0.00 0.00 0.00 0.00 0.00 0.00 0.00 0.00 0.00 0.00 0.00 0.00 0.00 0.00 0.00 0.00 0.00 0.00 0.00 0.00 0.00 0.00 0.00 0.00 0.00 0.00 0.00 0.00 0.00 0.00 0.00 0.00 0.00 0.00 0.00 0.00 0.00 0.00 0.00 0.00 0.00 0.00 0.00 0.00
0.00 0.00 0.00 0.00 0.00 0.00 0.00 0.00 0.00 0.00 0.00 0.00 0.00 0.00 0.00 0.00 0.00 0.00 0.00 0.00 0.00 0.00 0.00 0.00 0.00 0.00 0.00 0.00 0.00 0.00 0.00 0.00 0.00 0.00 0.00 0.00 0.00 0.00 0.00 0.00 0.00 0.00 0.00 0.00
0.00 0.00 0.00 0.00 0.00 0.00 0.00 0.00 0.00 0.00 0.00 0.00 0.00 0.00 0.00 0.00 0.00 0.00 0.00 0.00 0.00 0.00 0.00 0.00 0.00 0.00 0.00 0.00 0.00 0.00 0.00 0.00 0.00 0.00 0.00 0.00 0.00 0.00 0.00 0.00 0.00 0.00 0.00 0.00
0.00 0.00 0.00 0.00 0.00 0.00 0.00 0.00 0.00 0.00 0.00 0.00 0.00 0.00 0.00 0.00 0.00 0.00 0.00 0.00 0.00 0.00 0.00 0.00 0.00 0.00 0.00 0.00 0.00 0.00 0.00 0.00 0.00 0.00 0.00 0.00 0.00 0.00 0.00 0.00 0.00 0.00 0.00 0.00
0.00 0.00 0.00 0.00 0.00 0.00 0.00 0.00 0.00 0.00 0.00 0.00 0.00 0.00 0.00 0.00 0.00 0.00 0.00 0.00 0.00 0.00 0.00 0.00 0.00 0.00 0.00 0.00 0.00 0.00 0.00 0.00 0.00 0.00 0.00 0.00 0.00 0.00 0.00 0.00 0.00 0.00 0.00 0.00
MSLP
1012.45 1012.16 1011.28 1011.10 1011.32 1011.29 1011.36 1011.18 1010.81 1010.75 1011.25 1011.50 1010.49 1010.17 1010.19 1010.56 1011.22 1011.55 1011.87 1011.94 1011.97 1011.89 1011.85 1011.78 1011.55 1011.47 1011.49 1011.65 1011.57 1011.32 1011.48 1011.69 1012.12 1012.81 1012.60 1012.72 1013.06 1013.26 1013.71 1013.86 1014.03 1014.76 1015.47 1016.62
1012.18 1011.30 1010.88 1011.44 1011.74 1011.76 1011.51 1011.13 1010.78 1010.85 1011.31 1011.52 1010.37 1009.93 1009.82 1010.62 1011.08 1011.88 1012.17 1012.16 1012.34 1012.33 1012.13 1011.97 1011.45 1011.12 1011.00 1011.04 1010.98 1010.89 1010.96 1011.34 1011.99 1012.47 1012.50 1012.83 1013.03 1013.51 1013.74 1014.12 1014.65 1015.00 1015.75 1016.39
1010.70 1010.64 1011.18 1011.42 1011.69 1011.69 1011.33 1011.08 1010.89 1011.18 1011.31 1011.24 1010.84 1009.39 1009.91 1010.87 1011.50 1012.16 1012.25 1012.64 1012.75 1012.97 1012.74 1012.22 1011.59 1011.03 1010.93 1010.85 1010.79 1010.70 1010.98 1011.31 1011.91 1012.21 1012.49 1013.24 1013.73 1014.15 1014.41 1014.51 1014.64 1015.05 1016.19 1016.45
1010.74 1010.33 1011.17 1011.30 1011.13 1011.46 1010.98 1011.28 1011.53 1011.54 1011.55 1010.44 1011.02 1009.06 1009.27 1010.13 1010.92 1011.77 1012.11 1012.56 1012.96 1013.53 1013.31 1012.75 1012.36 1011.95 1011.58 1011.31 1010.83 1010.74 1011.10 1011.35 1011.53 1012.05 1012.30 1013.10 1013.71 1013.95 1014.47 1014.79 1015.05 1015.75 1016.51 1016.83
1009.83 1010.37 1010.77 1010.85 1010.62 1011.25 1011.11 1011.86 1011.84 1011.78 1011.45 1011.11 1010.35 1010.18 1008.46 1010.02 1010.36 1011.17 1012.09 1012.73 1013.34 1013.77 1013.72 1013.29 1012.90 1012.41 1012.12 1011.69 1011.47 1011.35 1011.21 1011.51 1011.69 1012.02 1012.18 1013.03 1013.54 1014.16 1014.55 1014.62 1015.56 1016.23 1016.95 1017.40
1009.65 1010.65 1010.59 1010.40 1011.18 1011.26 1011.88 1012.13 1012.24 1012.11 1011.61 1010.60 1009.58 1009.95 1008.01 1009.11 1009.97 1011.25 1012.10 1012.67 1013.55 1013.92 1014.10 1013.80 1013.38 1012.94 1012.60 1012.36 1012.20 1012.01 1011.93 1012.21 1012.26 1012.39 1012.89 1013.49 1013.87 1014.20 1014.91 1015.44 1016.11 1016.56 1017.31 1017.75
1009.37 1009.70 1010.31 1010.59 1011.02 1011.75 1011.64 1011.72 1011.37 1011.27 1011.15 1009.80 1010.48 1010.25 1008.40 1009.37 1010.54 1011.37 1012.17 1012.74 1013.68 1014.16 1014.45 1014.40 1014.01 1013.53 1013.27 1012.99 1012.80 1012.79 1012.82 1012.94 1012.93 1012.81 1013.25 1013.59 1014.17 1014.69 1014.87 1015.77 1016.12 1017.00 1017.72 1018.08
1008.10 1008.56 1009.41 1009.72 1009.58 1010.08 1010.76 1010.95 1010.84 1010.57 1010.23 1010.11 1010.84 1009.45 1008.58 1009.68 1010.75 1011.75 1012.57 1013.07 1013.77 1014.26 1014.75 1014.91 1014.78 1014.28 1013.97 1013.66 1013.51 1013.58 1013.66 1013.71 1013.64 1013.98 1014.27 1014.51 1014.76 1015.01 1015.56 1016.28 1016.73 1017.28 1017.89 1018.49
1007.32 1007.68 1009.07 1009.75 1009.78 1009.91 1010.83 1010.90 1011.02 1010.90 1011.08 1010.13 1008.85 1008.51 1009.39 1010.05 1010.72 1011.61 1012.21 1012.91 1013.50 1014.27 1014.87 1015.26 1015.37 1015.19 1014.79 1014.48 1014.33 1014.37 1014.37 1014.48 1014.56 1014.66 1014.76 1015.11 1015.47 1015.77 1015.93 1016.54 1017.07 1017.97 1018.31 1018.91
1006.59 1007.50 1008.78 1010.02 1010.14 1010.40 1009.84 1010.04 1010.75 1010.45 1009.78 1008.17 1007.13 1007.19 1006.71 1008.83 1009.61 1010.76 1011.66 1012.34 1013.18 1014.06 1014.97 1015.41 1015.73 1015.75 1015.62 1015.54 1015.37 1015.22 1015.19 1015.33 1015.38 1015.34 1015.46 1015.76 1015.81 1016.36 1016.60 1017.23 1017.73 1017.83 1018.48 1018.99
1006.29 1006.93 1008.85 1009.50 1009.15 1008.46 1009.77 1009.42 1009.47 1009.23 1008.61 1007.19 1006.08 1005.52 1005.98 1007.09 1008.47 1009.69 1010.88 1011.95 1012.83 1013.71 1014.75 1015.44 1015.87 1016.09 1016.12 1016.20 1016.19 1016.16 1016.06 1016.00 1016.00 1016.03 1016.15 1016.31 1016.55 1016.94 1016.97 1017.72 1018.10 1018.61 1019.08 1019.29
1005.65 1005.94 1006.80 1007.74 1008.61 1008.63 1007.87 1007.72 1007.93 1007.48 1007.59 1007.26 1006.75 1005.69 1006.39 1007.04 1008.18 1009.28 1010.49 1011.71 1012.63 1013.57 1014.68 1015.29 1015.80 1016.17 1016.41 1016.60 1016.71 1016.71 1016.74 1016.76 1016.89 1017.00 1016.73 1016.99 1017.41 1017.69 1018.13 1018.73 1019.04 1019.45 1019.84 1019.70
1005.92 1005.48 1005.95 1007.38 1008.37 1008.65 1007.73 1007.39 1007.32 1007.26 1007.14 1006.17 1005.70 1005.18 1006.58 1007.50 1008.29 1009.21 1010.22 1011.38 1012.36 1013.43 1014.69 1015.39 1015.82 1016.18 1016.48 1016.73 1016.95 1017.17 1017.28 1017.33 1017.34 1017.43 1017.67 1017.83 1018.38 1018.57 1019.06 1019.38 1019.64 1019.95 1020.29 1020.12
1005.25 1004.57 1003.67 1003.57 1004.19 1005.12 1006.21 1006.08 1006.60 1006.48 1005.74 1004.87 1004.55 1004.76 1006.26 1007.10 1007.93 1008.93 1009.95 1010.94 1011.92 1013.02 1014.10 1015.11 1015.74 1016.13 1016.48 1016.75 1016.90 1017.19 1017.56 1017.77 1017.90 1017.96 1018.17 1018.48 1018.95 1019.35 1019.81 1019.96 1020.03 1020.37 1020.59 1020.98
1005.48 1004.25 1004.05 1003.99 1004.41 1004.71 1004.83 1005.06 1005.65 1005.40 1004.69 1004.42 1003.37 1003.88 1004.21 1005.66 1006.77 1007.95 1009.25 1010.58 1011.46 1012.50 1013.61 1014.67 1015.24 1015.81 1016.12 1016.62 1017.01 1017.31 1017.60 1017.86 1018.06 1018.40 1018.82 1019.12 1019.32 1019.75 1020.45 1020.67 1020.77 1021.18 1021.20 1021.70
1005.91 1004.33 1004.14 1004.08 1004.41 1004.59 1004.53 1004.63 1004.77 1004.73 1004.48 1004.04 1003.85 1003.56 1003.88 1004.35 1006.17 1007.55 1008.66 1009.85 1010.82 1011.64 1012.66 1013.73 1014.60 1015.15 1015.43 1015.93 1016.51 1017.32 1017.72 1018.02 1018.32 1018.68 1019.21 1019.83 1020.29 1020.93 1021.10 1020.90 1021.13 1021.38 1021.79 1022.13
1006.37 1005.07 1004.27 1003.57 1004.25 1004.69 1003.95 1003.16 1003.66 1003.69 1003.42 1003.15 1003.32 1002.56 1003.50 1004.57 1005.17 1006.24 1007.58 1008.81 1009.73 1010.49 1011.64 1012.69 1013.58 1014.42 1015.01 1015.58 1016.23 1016.85 1017.30 1017.62 1018.09 1018.92 1019.56 1020.01 1020.53 1021.00 1021.19 1021.14 1021.41 1021.85 1021.96 1022.13
1006.72 1005.35 1004.56 1003.43 1004.31 1003.22 1000.94 1001.33 1001.73 1002.05 1001.86 1002.42 1002.01 1002.36 1002.93 1003.34 1004.19 1005.27 1006.31 1007.34 1008.62 1009.67 1010.53 1011.78 1012.79 1013.90 1014.82 1015.57 1016.10 1016.73 1017.40 1017.84 1018.34 1018.91 1019.49 1019.98 1020.46 1020.80 1021.00 1021.31 1021.80 1022.01 1022.23 1022.83
1006.83 1005.37 1004.06 1003.38 1002.80 1001.17 1001.32 1001.52 1001.46 1001.49 1000.36 1000.80 1001.03 1001.92 1002.69 1003.57 1004.30 1004.88 1005.48 1006.63 1007.36 1008.47 1009.57 1010.63 1012.02 1013.38 1014.69 1015.49 1015.93 1016.60 1017.19 1017.69 1018.16 1018.63 1019.19 1019.78 1020.36 1020.78 1021.24 1021.62 1021.99 1022.43 1022.92 1023.49
1006.01 1005.02 1003.70 1003.09 1001.72 1000.20 999.61 999.82 1000.38 1000.92 999.45 998.68 999.54 1000.56 1001.97 1003.10 1003.03 1002.57 1004.53 1005.96 1007.07 1008.28 1009.22 1010.20 1011.42 1012.81 1014.13 1015.19 1015.94 1016.53 1016.90 1017.44 1017.91 1018.43 1019.05 1019.66 1020.11 1020.66 1021.26 1021.97 1022.59 1023.03 1023.49 1024.05
1004.87 1004.08 1002.65 1001.62 1000.74 999.69 999.49 999.91 1000.27 999.95 998.41 998.03 998.51 999.59 1001.08 1001.53 1001.11 1001.87 1003.65 1005.31 1006.51 1007.70 1008.87 1009.92 1011.08 1012.06 1013.23 1014.61 1015.57 1016.20 1016.76 1017.19 1017.90 1018.80 1019.44 1020.06 1020.63 1021.12 1021.67 1022.25 1022.87 1023.33 1023.72 1024.21
1002.09 1001.84 1001.25 1000.88 1000.34 999.77 999.58 1000.45 999.29 997.88 998.07 998.39 998.90 999.42 1000.21 1001.27 1002.03 1002.68 1003.58 1004.88 1006.18 1007.34 1008.54 1009.67 1010.83 1011.87 1012.95 1014.21 1015.01 1015.65 1016.41 1017.10 1018.11 1019.00 1019.72 1020.34 1020.87 1021.48 1022.03 1022.43 1022.96 1023.45 1023.92 1024.12
1000.99 999.23 999.29 999.27 998.45 998.58 998.63 998.24 998.33 998.52 998.39 998.76 999.15 999.89 1000.57 1001.38 1001.97 1002.89 1003.88 1005.02 1006.14 1007.22 1008.40 1009.60 1010.57 1011.69 1012.80 1013.81 1014.47 1014.96 1015.84 1016.74 1017.78 1018.65 1019.43 1020.22 1021.02 1021.82 1022.39 1022.80 1023.25 1023.56 1023.91 1024.04
1000.01 999.81 998.89 999.03 998.21 998.22 998.52 998.57 998.63 998.73 998.80 998.97 999.37 1000.04 1000.51 1001.03 1001.73 1002.75 1003.92 1005.02 1006.12 1007.29 1008.31 1009.42 1010.43 1011.32 1012.31 1013.33 1014.11 1014.58 1015.55 1016.72 1017.55 1018.33 1019.14 1019.84 1020.41 1021.16 1021.88 1022.39 1022.89 1023.25 1023.51 1023.77
997.61 998.87 997.89 997.47 997.51 997.92 998.21 998.22 998.13 998.56 998.95 999.23 999.65 1000.08 1000.43 1000.81 1001.60 1002.31 1003.61 1004.65 1005.80 1006.97 1008.25 1009.08 1009.76 1010.55 1011.61 1012.75 1013.67 1014.37 1015.39 1016.39 1017.06 1017.86 1018.66 1019.48 1020.20 1020.86 1021.24 1021.84 1022.44 1022.85 1023.17 1023.46
996.78 996.69 996.51 995.75 996.25 996.54 996.60 997.21 997.73 998.09 998.42 998.99 999.42 1000.11 1000.60 1000.80 1001.23 1002.11 1003.16 1004.17 1005.28 1006.47 1007.65 1008.67 1009.43 1010.36 1011.12 1012.15 1013.15 1014.09 1015.22 1015.92 1016.46 1017.15 1017.97 1018.66 1019.37 1020.22 1021.00 1021.74 1022.68 1023.66 1023.65 1023.97
Thickness
5679 5673 5675 5685 5686 5684 5678 5673 5673 5681 5679 5666 5674 5674 5677 5676 5663 5654 5646 5638 5628 5617 5610 5602 5597 5598 5601 5604 5611 5619 5625 5632 5634 5632 5638 5642 5644 5647 5644 5648 5654 5656 5654 5647
5670 5670 5687 5681 5674 5670 5670 5669 5672 5677 5672 5664 5673 5670 5679 5667 5660 5647 5639 5632 5621 5610 5599 5590 5586 5590 5597 5603 5610 5618 5626 5631 5631 5631 5637 5639 5641 5641 5642 5641 5643 5647 5647 5647
5676 5681 5677 5671 5665 5662 5667 5666 5670 5664 5667 5666 5660 5674 5666 5658 5652 5643 5639 5627 5617 5604 5594 5589 5588 5593 5598 5603 5610 5619 5623 5626 5627 5632 5635 5632 5631 5629 5630 5633 5639 5642 5641 5644
5672 5685 5668 5665 5666 5665 5662 5670 5662 5657 5654 5659 5658 5665 5669 5662 5652 5642 5637 5626 5616 5599 5595 5593 5590 5590 5595 5601 5612 5619 5622 5625 5630 5631 5633 5626 5626 5628 5627 5626 5630 5632 5633 5637
5675 5669 5664 5660 5668 5667 5665 5659 5657 5654 5653 5651 5658 5650 5681 5658 5653 5646 5634 5623 5612 5600 5597 5596 5595 5597 5598 5604 5609 5614 5621 5623 5627 5628 5630 5623 5622 5623 5623 5627 5626 5627 5625 5627
5676 5669 5670 5672 5662 5666 5656 5651 5647 5647 5648 5647 5664 5653 5679 5665 5658 5642 5635 5626 5611 5602 5596 5596 5598 5600 5602 5604 5608 5612 5616 5617 5621 5624 5621 5615 5617 5618 5619 5620 5619 5621 5618 5620
5666 5666 5666 5667 5655 5652 5654 5648 5641 5642 5636 5658 5644 5641 5671 5665 5650 5642 5633 5627 5613 5603 5596 5592 5595 5599 5602 5604 5607 5608 5609 5609 5611 5617 5615 5615 5614 5614 5618 5616 5617 5615 5613 5614
5656 5656 5661 5670 5670 5661 5654 5655 5641 5632 5644 5648 5629 5640 5667 5660 5650 5640 5631 5625 5615 5605 5597 5592 5591 5597 5600 5603 5605 5605 5605 5605 5608 5608 5606 5606 5608 5609 5608 5607 5611 5610 5608 5607
5657 5659 5660 5659 5663 5666 5645 5643 5652 5634 5624 5633 5653 5661 5653 5648 5644 5636 5632 5626 5620 5609 5599 5593 5591 5591 5597 5601 5603 5603 5603 5603 5605 5605 5605 5603 5601 5601 5604 5605 5605 5601 5604 5600
5665 5650 5651 5643 5652 5649 5656 5658 5638 5640 5623 5644 5665 5661 5681 5648 5649 5641 5634 5630 5624 5615 5602 5596 5591 5590 5591 5593 5595 5598 5600 5599 5599 5600 5601 5600 5602 5598 5600 5597 5597 5601 5599 5598
5662 5654 5636 5640 5646 5657 5642 5648 5647 5652 5649 5662 5667 5679 5684 5672 5661 5649 5641 5633 5627 5620 5608 5599 5594 5591 5590 5588 5589 5591 5593 5595 5596 5597 5597 5597 5597 5595 5598 5591 5592 5592 5591 5593
5661 5658 5643 5642 5644 5650 5666 5663 5662 5657 5650 5653 5654 5674 5674 5673 5663 5655 5644 5634 5628 5621 5609 5602 5598 5593 5589 5586 5586 5588 5588 5589 5589 5589 5593 5594 5592 5589 5586 5582 5582 5582 5581 5584
5640 5642 5633 5625 5630 5633 5646 5657 5661 5661 5654 5657 5659 5679 5667 5662 5657 5653 5643 5635 5629 5621 5608 5601 5597 5594 5591 5588 5586 5584 5585 5584 5585 5586 5584 5583 5581 5581 5577 5576 5578 5578 5576 5579
5639 5639 5657 5660 5672 5672 5649 5658 5656 5659 5658 5670 5670 5676 5656 5655 5653 5650 5644 5638 5632 5624 5615 5604 5598 5595 5592 5589 5588 5586 5583 5581 5580 5581 5579 5579 5576 5575 5571 5572 5575 5574 5572 5568
5623 5630 5645 5654 5652 5654 5658 5656 5652 5657 5672 5666 5687 5674 5682 5669 5663 5657 5650 5639 5632 5625 5617 5607 5602 5598 5596 5590 5587 5585 5583 5581 5581 5578 5575 5573 5574 5569 5562 5562 5565 5562 5563 5560
5606 5626 5631 5636 5638 5643 5645 5651 5655 5659 5668 5672 5673 5671 5688 5689 5673 5659 5651 5642 5634 5630 5624 5615 5607 5604 5604 5599 5592 5583 5580 5579 5578 5575 5571 5567 5564 5557 5557 5561 5561 5560 5556 5553
5589 5606 5615 5629 5629 5625 5631 5653 5654 5661 5671 5676 5665 5685 5685 5671 5672 5667 5656 5648 5641 5638 5631 5623 5614 5608 5605 5601 5595 5589 5585 5582 5579 5572 5567 5563 5559 5555 5555 5558 5557 5553 5553 5553
5576 5593 5603 5622 5609 5611 5671 5671 5675 5669 5677 5677 5687 5688 5684 5685 5680 5675 5669 5660 5650 5643 5637 5628 5621 5611 5603 5598 5595 5590 5583 5579 5575 5571 5566 5563 5560 5558 5558 5556 5551 5550 5548 5542
5561 5585 5596 5597 5605 5644 5639 5648 5658 5659 5681 5687 5686 5688 5685 5678 5674 5670 5674 5666 5661 5652 5644 5636 5626 5613 5602 5596 5594 5589 5584 5580 5577 5573 5569 5564 5559 5555 5552 5548 5546 5543 5539 5534
5553 5570 5591 5587 5600 5612 5660 5669 5670 5667 5670 5710 5701 5696 5685 5676 5675 5690 5677 5668 5661 5652 5646 5637 5628 5617 5605 5596 5591 5587 5584 5580 5577 5573 5568 5563 5559 5554 5548 5542 5537 5533 5528 5522
5543 5556 5574 5598 5605 5629 5655 5658 5666 5654 5690 5707 5709 5704 5691 5686 5701 5700 5684 5670 5663 5655 5646 5638 5629 5621 5611 5600 5591 5586 5581 5578 5573 5566 5561 5556 5551 5547 5542 5536 5530 5526 5522 5517
5558 5562 5574 5594 5594 5604 5641 5641 5661 5697 5694 5696 5698 5701 5694 5693 5687 5684 5680 5670 5661 5653 5645 5637 5628 5620 5612 5600 5593 5587 5580 5575 5567 5560 5554 5549 5545 5539 5535 5531 5526 5521 5516 5513
5546 5582 5591 5601 5615 5632 5647 5667 5675 5679 5689 5685 5689 5689 5689 5685 5685 5679 5673 5666 5658 5651 5643 5635 5628 5619 5610 5600 5594 5590 5582 5574 5566 5558 5551 5545 5538 5531 5526 5523 5519 5515 5511 5508
5551 5566 5582 5589 5612 5628 5638 5652 5661 5670 5677 5681 5684 5683 5685 5685 5684 5677 5670 5662 5655 5647 5640 5632 5625 5617 5609 5600 5593 5590 5581 5571 5564 5557 5549 5543 5538 5531 5525 5520 5515 5511 5507 5504
5569 5562 5580 5591 5603 5618 5630 5647 5660 5665 5668 5672 5675 5678 5680 5684 5680 5678 5668 5663 5655 5647 5637 5631 5626 5619 5610 5601 5593 5588 5579 5570 5563 5556 5549 5542 5535 5529 5525 5520 5514 5510 5505 5500
5560 5570 5575 5592 5614 5625 5647 5652 5655 5659 5663 5668 5671 5670 5674 5678 5678 5676 5669 5664 5657 5648 5637 5629 5623 5616 5610 5602 5595 5587 5576 5569 5565 5558 5550 5544 5538 5529 5522 5516 5506 5496 5493 5489